DK4ARL Weather Reports


Display with metric or nautical units.
time (UTC)temp
F
wind
direction
speed
MPH
gust
MPH
rain 1hr
in
rain 24hr
in
rain mn
in
humidity
%
barometer
mb
20260505224624 54 0.0 0.0 0.00 0.09 0.00 971.6
20260505223144 54 0.0 0.0 0.00 0.09 0.00 971.6
20260505221703 55 0.0 0.0 0.00 0.09 0.00 971.6
20260505220221 55 0.0 0.0 0.00 0.09 0.00 971.6
20260505214739 55 0.0 0.0 0.00 0.09 0.00 971.6
20260505213257 55 0.0 0.0 0.00 0.09 0.00 971.5
20260505211815 55 0.0 0.0 0.00 0.09 0.00 971.5
20260505210333 55 0.0 0.0 0.00 0.09 0.00 971.4
20260505204850 55 0.0 0.0 0.00 0.09 0.00 971.3
20260505203408 55 0.0 0.0 0.00 0.09 0.00 971.2
20260505201925 55 0.0 0.0 0.00 0.09 0.00 971.1
20260505200442 55 0.0 0.0 0.00 0.09 0.00 971.0
20260505194958 55 0.0 0.0 0.00 0.09 0.00 970.9
20260505193514 55 0.0 0.0 0.00 0.09 0.00 970.8
20260505192029 56 0.0 0.0 0.00 0.09 0.00 970.8
20260505190543 57 0.0 0.0 0.00 0.09 0.00 970.8
20260505185056 57 0.0 0.0 0.02 0.09 0.00 970.8
20260505183611 58 0.0 0.0 0.01 0.08 0.00 970.8
20260505182123 58 0.0 0.0 0.01 0.08 0.00 970.8
20260505180640 59 0.0 0.0 0.00 0.08 0.00 970.9
20260505175152 59 0.0 0.0 0.00 0.07 0.00 970.9
20260505173702 60 0.0 0.0 0.00 0.07 0.00 970.8
20260505172212 61 0.0 0.0 0.00 0.07 0.00 970.7
20260505170721 62 0.0 0.0 0.00 0.07 0.00 970.7
20260505160753 63 0.0 0.0 0.00 0.06 0.00 971.1
20260505152317 61 0.0 0.0 0.00 0.06 0.00 971.4
20260505150825 60 0.0 0.0 0.00 0.06 0.00 971.5
20260505123843 70 0.0 0.0 0.00 0.00 0.00 970.7
20260505122334 70 0.0 0.0 0.00 0.00 0.00 970.8
20260505115315 71 0.0 0.0 0.00 0.00 0.00 970.9
20260505113804 71 0.0 0.0 0.00 0.00 0.00 971.0
20260505112251 72 0.0 0.0 0.00 0.00 0.00 971.1
20260505110738 71 0.0 0.0 0.00 0.00 0.00 971.2
20260505102156 70 0.0 0.0 0.00 0.00 0.00 971.6
20260505100643 76 0.0 0.0 0.00 0.00 0.00 971.7
20260505095131 75 0.0 0.0 0.00 0.00 0.00 971.8
20260505093621 72 0.0 0.0 0.00 0.00 0.00 972.0
20260505092111 75 0.0 0.0 0.00 0.00 0.00 972.1
20260505090603 75 0.0 0.0 0.00 0.00 0.00 972.2
20260505085057 77 0.0 0.0 0.00 0.00 0.00 972.3
20260505083552 72 0.0 0.0 0.00 0.00 0.00 972.3
20260505082050 72 0.0 0.0 0.00 0.00 0.00 972.4
20260505080549 70 0.0 0.0 0.00 0.00 0.00 972.5
20260505075050 72 0.0 0.0 0.00 0.00 0.00 972.6
20260505073554 70 0.0 0.0 0.00 0.00 0.00 972.7
20260505072100 66 0.0 0.0 0.00 0.00 0.00 972.8
20260505070609 67 0.0 0.0 0.00 0.00 0.00 972.9
20260505065121 64 0.0 0.0 0.00 0.00 0.00 973.0
20260505063635 59 0.0 0.0 0.00 0.00 0.00 973.1
20260505062150 59 0.0 0.0 0.00 0.00 0.00 973.1
20260505060706 59 0.0 0.0 0.00 0.00 0.00 973.2
20260505055232 58 0.0 0.0 0.00 0.00 0.00 973.2
20260505053749 59 0.0 0.0 0.00 0.00 0.00 973.2
20260505052306 59 0.0 0.0 0.00 0.00 0.00 973.2
20260505050825 60 0.0 0.0 0.00 0.00 0.00 973.2
20260505035509 54 0.0 0.0 0.00 0.00 0.00 973.4
20260505032549 55 0.0 0.0 0.00 0.00 0.00 973.7
20260505031108 55 0.0 0.0 0.00 0.00 0.00 973.8
20260505025627 56 0.0 0.0 0.00 0.00 0.00 974.0
20260505024145 56 0.0 0.0 0.00 0.00 0.00 974.1
20260505022704 56 0.0 0.0 0.00 0.00 0.00 974.3
20260505021222 56 0.0 0.0 0.00 0.00 0.00 974.4
20260505015740 56 0.0 0.0 0.00 0.00 0.00 974.5
20260505014257 56 0.0 0.0 0.00 0.00 0.00 974.6
20260505012814 57 0.0 0.0 0.00 0.00 0.00 974.7
20260505011332 57 0.0 0.0 0.00 0.00 0.00 974.7
20260505005859 57 0.0 0.0 0.00 0.00 0.00 974.7
20260505004415 58 0.0 0.0 0.00 0.00 0.00 974.8
20260505002932 57 0.0 0.0 0.00 0.00 0.00 974.9
20260505000005 58 0.0 0.0 0.00 0.00 0.00 975.2
20260504234521 58 0.0 0.0 0.00 0.00 0.00 975.3
20260504233037 58 0.0 0.0 0.00 0.00 0.00 975.4